This is the latest recevied weather packets stored in our database for station/object OK2JF-6. If no packets are shown the sender has not sent any weather packets the latest 10 day(s).
| Time | Temp. | Humidity | Pressure | Rain* | Wind** | Luminosity | Snow |
|---|---|---|---|---|---|---|---|
| 1777820703 | 21.67° C | 36% | 1087.9 hPa | 0 mm | - | 180 W/m² | - |
| 1777820523 | 21.67° C | 36% | 1087.7 hPa | 0 mm | - | 174 W/m² | - |
| 1777820463 | 21.67° C | 37% | 1087.6 hPa | 0 mm | - | 191 W/m² | - |
| 1777820297 | 21.67° C | 37% | 1087.9 hPa | 0 mm | - | 195 W/m² | - |
| 1777820223 | 21.67° C | 37% | 1087.8 hPa | 0 mm | - | 198 W/m² | - |
| 1777819983 | 21.67° C | 36% | 1087.8 hPa | 0 mm | - | 205 W/m² | - |
| 1777818559 | 22.22° C | 36% | 1088 hPa | 0 mm | - | 154 W/m² | - |
| 1777818018 | 21.67° C | 37% | 1088.1 hPa | 0 mm | - | 260 W/m² | - |
| 1777817043 | 22.22° C | 36% | 1088 hPa | 0 mm | - | 290 W/m² | - |
| 1777816503 | 22.22° C | 36% | 1088 hPa | 0 mm | - | 307 W/m² | - |
| 1777816023 | 22.22° C | 35% | 1088.3 hPa | 0 mm | - | 318 W/m² | - |
| 1777815917 | 22.22° C | 36% | 1088.2 hPa | 0 mm | - | 322 W/m² | - |
| 1777815483 | 22.22° C | 35% | 1088.3 hPa | 0 mm | - | 338 W/m² | - |
| 1777815198 | 22.22° C | 36% | 1088.4 hPa | 0 mm | - | 346 W/m² | - |
| 1777814883 | 21.67° C | 36% | 1088.1 hPa | 0 mm | - | 354 W/m² | - |
| 1777814763 | 21.67° C | 36% | 1088.2 hPa | 0 mm | - | 359 W/m² | - |
| 1777814598 | 21.67° C | 36% | 1088.3 hPa | 0 mm | - | 364 W/m² | - |
| 1777814223 | 21.67° C | 36% | 1088.7 hPa | 0 mm | - | 371 W/m² | - |
| 1777814103 | 21.67° C | 36% | 1088.7 hPa | 0 mm | - | 376 W/m² | - |
| 1777813803 | 22.22° C | 36% | 1088.7 hPa | 0 mm | - | 363 W/m² | - |
| 1777813743 | 22.22° C | 35% | 1088.8 hPa | 0 mm | - | 216 W/m² | - |
| 1777812903 | 22.22° C | 35% | 1089.1 hPa | 0 mm | - | 407 W/m² | - |
| 1777812063 | 22.22° C | 36% | 1088.9 hPa | 0 mm | - | 423 W/m² | - |
| 1777811763 | 22.78° C | 35% | 1089.1 hPa | 0 mm | - | 390 W/m² | - |
| 1777811523 | 22.22° C | 37% | 1089.1 hPa | 0 mm | - | 386 W/m² | - |
* Rain latest hour (hover to see other rain measurements)
** Current wind speed in m/s (hover to see current wind gust speed)